EW2785 Weather Reports


time (UTC)temp
C
wind
direction
speed
KPH
gust
KPH
rain 1hr
cm
rain 24hr
cm
rain mn
cm
humidity
%
barometer
mb
20260506201517 6 263 1.6 9.7 0.18 2.16 2.03 94 1006.1
20260506200032 6 336 1.6 8.0 0.23 2.21 2.01 94 1006.2
20260506194515 6 236 0.0 12.9 0.25 2.18 1.98 94 1006.2
20260506193013 6 5 0.0 11.3 0.23 2.13 1.93 94 1006.3
20260506191513 6 9 0.0 9.7 0.23 2.06 1.85 94 1006.2
20260506190011 6 295 0.0 12.9 0.18 1.98 1.78 94 1006.3
20260506184510 6 325 0.0 9.7 0.20 1.93 1.73 94 1006.2
20260506183010 6 342 3.2 11.3 0.25 1.91 1.70 94 1006.2
20260506181514 6 334 0.0 14.5 0.25 1.83 1.63 94 1006.4
20260506180015 6 258 0.0 12.9 0.28 1.78 1.57 94 1006.1
20260506174505 6 227 1.6 8.0 0.30 1.73 1.52 94 1006.0
20260506173004 6 243 1.6 12.9 0.33 1.65 1.42 93 1006.2
20260506171503 6 313 3.2 11.3 0.36 1.57 1.37 93 1006.7
20260506170112 6 252 3.2 8.0 0.36 1.50 1.30 93 1006.7
20260506164623 7 15 3.2 9.7 0.36 1.42 1.22 93 1006.2
20260506163103 7 339 0.0 9.7 0.33 1.32 1.12 93 1006.5
20260506161555 7 180 0.0 14.5 0.30 1.22 1.02 93 1006.7
20260506160106 7 245 3.2 11.3 0.30 1.14 0.94 93 1006.8
20260506154554 7 274 3.2 8.0 0.30 1.07 0.86 93 1006.9
20260506153051 7 334 1.6 9.7 0.30 0.99 0.79 93 1007.0
20260506151550 7 302 0.0 4.8 0.28 0.91 0.71 93 1007.2
20260506150049 7 339 1.6 9.7 0.23 0.84 0.64 93 1007.5
20260506144547 7 288 1.6 6.4 0.20 0.76 0.56 93 1007.5
20260506143046 7 265 3.2 14.5 0.20 0.69 0.48 93 1007.6
20260506141604 8 9 1.6 9.7 0.20 0.64 0.43 93 1007.3
20260506140042 8 338 4.8 12.9 0.23 0.61 0.41 93 1007.3
20260506134540 8 336 3.2 9.7 0.23 0.56 0.36 93 1007.3
20260506133037 8 234 1.6 12.9 0.18 0.48 0.28 93 1007.1
20260506131538 8 293 0.0 12.9 0.15 0.43 0.23 93 1007.3
20260506130033 10 342 3.2 12.9 0.10 0.38 0.18 93 1007.3
20260506124531 10 262 1.6 11.3 0.05 0.33 0.13 93 1007.7
20260506123036 10 297 0.0 17.7 0.00 0.28 0.08 93 1007.4
20260506121522 11 10 4.8 12.9 0.00 0.28 0.08 93 1007.2
20260506120034 11 284 1.6 8.0 0.00 0.28 0.08 93 1007.2
20260506114525 11 291 1.6 6.4 0.00 0.28 0.08 93 1007.1
20260506113020 11 268 1.6 6.4 0.00 0.28 0.08 93 1007.2
20260506111520 11 304 0.0 4.8 0.00 0.28 0.08 93 1007.2
20260506110024 11 333 0.0 3.2 0.00 0.28 0.08 93 1006.9
20260506104519 11 335 0.0 0.0 0.00 0.28 0.08 93 1006.8
20260506103026 11 335 0.0 0.0 0.00 0.28 0.08 93 1006.8
20260506101520 11 335 0.0 0.0 0.00 0.28 0.08 93 1006.7
20260506100017 11 334 0.0 1.6 0.00 0.28 0.08 93 1007.0
20260506094527 11 336 0.0 0.0 0.00 0.28 0.08 92 1006.7
20260506093023 11 336 0.0 0.0 0.00 0.28 0.08 92 1007.0
20260506091512 11 336 0.0 0.0 0.00 0.28 0.08 92 1006.9
20260506090010 12 336 0.0 0.0 0.00 0.28 0.08 92 1007.1
20260506084508 12 336 0.0 0.0 0.00 0.28 0.08 92 1007.2
20260506083006 12 336 0.0 1.6 0.00 0.28 0.08 92 1007.5
20260506081505 12 336 0.0 0.0 0.00 0.28 0.08 92 1007.8
20260506073105 12 336 0.0 0.0 0.03 0.28 0.08 92 1007.5
20260506071602 13 336 0.0 0.0 0.03 0.28 0.08 92 1007.6
20260506070116 13 336 0.0 1.6 0.03 0.28 0.08 92 1007.7
20260506061553 13 351 0.0 0.0 0.00 0.25 0.05 92 1007.8
20260506044554 13 61 0.0 0.0 0.15 0.25 0.05 91 1008.2
20260506043046 13 61 0.0 0.0 0.13 0.23 0.03 91 1008.1
20260506041550 14 61 0.0 1.6 0.13 0.23 0.03 91 1007.7
20260506040043 13 61 0.0 0.0 0.08 0.18 0.18 91 1007.9
20260506034538 13 42 0.0 1.6 0.00 0.10 0.10 90 1007.7
20260506033036 13 42 0.0 0.0 0.00 0.10 0.10 90 1007.5
20260506031548 13 42 0.0 0.0 0.00 0.10 0.10 90 1007.5
20260506030036 13 42 0.0 1.6 0.00 0.10 0.10 90 1007.2
20260506024536 13 42 0.0 3.2 0.00 0.10 0.10 89 1006.9
20260506023033 14 42 0.0 0.0 0.00 0.10 0.10 89 1007.0
20260506021532 14 42 0.0 0.0 0.00 0.10 0.10 89 1007.0
20260506020031 14 42 0.0 0.0 0.00 0.10 0.10 89 1007.2
20260506014530 14 42 0.0 0.0 0.00 0.10 0.10 88 1007.1
20260506013027 14 42 0.0 1.6 0.00 0.10 0.10 87 1006.7
20260506011528 14 42 0.0 0.0 0.00 0.10 0.10 86 1006.3
20260506010026 15 42 0.0 0.0 0.00 0.10 0.10 85 1006.0
20260506004531 15 42 0.0 0.0 0.00 0.10 0.10 85 1006.0
20260506003025 16 42 0.0 0.0 0.00 0.10 0.10 85 1005.9
20260506001524 16 42 0.0 0.0 0.00 0.10 0.10 83 1005.9
20260506000024 16 42 0.0 0.0 0.00 0.10 0.10 82 1005.8
20260505234552 16 42 0.0 4.8 0.00 0.10 0.10 81 1005.7
20260505233022 17 98 0.0 3.2 0.00 0.10 0.10 79 1006.1
20260505231523 17 107 0.0 4.8 0.00 0.10 0.10 77 1006.0
20260505230023 17 169 0.0 1.6 0.00 0.10 0.10 75 1006.0
20260505224529 17 169 0.0 0.0 0.00 0.10 0.10 75 1005.7
20260505223021 17 169 0.0 4.8 0.00 0.10 0.10 74 1005.2
20260505221521 17 119 1.6 4.8 0.00 0.10 0.10 73 1005.1
20260505220020 17 179 1.6 16.1 0.03 0.10 0.10 76 1005.5
20260505214523 17 163 1.6 6.4 0.03 0.10 0.10 82 1005.6
20260505213018 17 180 1.6 8.0 0.03 0.10 0.10 84 1005.3
20260505211518 17 199 0.0 4.8 0.03 0.10 0.10 84 1004.8
20260505210020 17 16 0.0 1.6 0.03 0.08 0.08 84 1004.1
20260505204524 17 16 1.6 8.0 0.08 0.08 0.08 83 1003.8
20260505203017 17 67 3.2 6.4 0.08 0.08 0.08 83 1005.1